G4KVI Weather Reports


time (UTC)temp
F
wind
direction
speed
knots
gust
knots
rain 1hr
in
rain 24hr
in
rain mn
in
humidity
%
barometer
mb
20260502221505 53 298 0.0 0.9 0.00 0.39 0.39 96 1013.2
20260502221005 53 299 0.0 0.9 0.00 0.39 0.39 95 1013.2
20260502220505 53 0 0.0 0.0 0.00 0.39 0.39 95 1013.2
20260502220005 53 0 0.0 0.0 0.00 0.39 0.39 95 1013.0
20260502215505 53 0 0.0 0.0 0.00 0.39 0.39 95 1013.1
20260502215005 53 0 0.0 0.0 0.00 0.39 0.39 95 1013.0
20260502214505 53 0 0.0 0.0 0.00 0.39 0.39 95 1013.3
20260502214005 53 0 0.0 0.0 0.00 0.39 0.39 95 1013.1
20260502213505 53 0 0.0 0.0 0.00 0.39 0.39 95 1012.9
20260502213005 53 0 0.0 0.0 0.00 0.39 0.39 95 1013.0
20260502212505 53 0 0.0 0.0 0.00 0.39 0.39 95 1013.2
20260502212005 53 0 0.0 0.0 0.00 0.39 0.39 95 1013.1
20260502211505 53 0 0.0 0.0 0.00 0.39 0.39 95 1012.7
20260502211005 53 0 0.0 0.0 0.00 0.39 0.39 95 1013.1
20260502210505 53 0 0.0 0.0 0.00 0.39 0.39 95 1012.9
20260502210005 53 0 0.0 0.0 0.00 0.39 0.39 95 1013.0
20260502205505 53 300 0.0 0.9 0.00 0.39 0.39 95 1013.2
20260502205005 53 299 0.0 1.7 0.01 0.39 0.39 95 1013.0
20260502204505 53 299 0.0 1.7 0.01 0.39 0.39 95 1013.1
20260502204005 53 298 0.0 0.9 0.01 0.39 0.39 95 1013.1
20260502203505 53 298 0.0 0.9 0.01 0.39 0.39 95 1013.3
20260502203005 53 298 0.0 0.9 0.01 0.39 0.39 95 1013.2
20260502202505 53 298 0.9 1.7 0.01 0.39 0.39 95 1013.2
20260502202005 53 304 0.9 2.6 0.01 0.39 0.39 95 1013.2
20260502201505 53 303 0.9 2.6 0.01 0.39 0.39 95 1013.3
20260502201005 53 312 0.9 1.7 0.01 0.39 0.39 95 1013.2
20260502200505 53 321 0.9 1.7 0.01 0.39 0.39 95 1013.3
20260502200005 53 304 0.9 1.7 0.01 0.39 0.39 95 1013.2
20260502195505 53 282 0.0 1.7 0.01 0.39 0.39 95 1013.5
20260502195005 53 280 0.0 1.7 0.00 0.38 0.38 94 1013.4
20260502194505 53 263 0.0 0.9 0.00 0.38 0.38 95 1013.3
20260502194005 53 262 0.0 0.9 0.00 0.38 0.38 94 1013.5
20260502193505 53 270 0.0 0.9 0.00 0.38 0.38 94 1013.4
20260502193005 53 271 0.0 0.9 0.01 0.38 0.38 94 1013.7
20260502192505 54 272 0.0 0.9 0.01 0.38 0.38 94 1013.5
20260502192005 54 272 0.0 0.9 0.01 0.38 0.38 94 1013.4
20260502191505 54 272 0.0 0.9 0.01 0.38 0.38 94 1013.6
20260502191005 54 272 0.0 0.9 0.02 0.38 0.38 94 1013.4
20260502190505 54 275 0.0 0.9 0.02 0.38 0.38 94 1013.4
20260502190005 54 277 0.0 0.9 0.02 0.38 0.38 94 1013.2
20260502185505 54 279 0.0 0.9 0.02 0.38 0.38 94 1013.5
20260502185005 54 281 0.0 0.9 0.03 0.38 0.38 94 1013.4
20260502184505 54 288 0.0 0.9 0.05 0.38 0.38 94 1013.4
20260502184005 54 0 0.0 0.0 0.06 0.38 0.38 94 1013.7
20260502183505 54 293 0.0 0.9 0.07 0.38 0.38 94 1013.6
20260502183005 54 293 0.0 0.9 0.08 0.37 0.37 94 1013.4
20260502182505 54 0 0.0 0.0 0.09 0.37 0.37 94 1013.7
20260502182005 54 292 0.0 0.9 0.09 0.37 0.37 94 1013.7
20260502181505 54 293 0.0 0.9 0.10 0.37 0.37 94 1013.5
20260502181005 54 293 0.0 0.9 0.10 0.36 0.36 93 1013.6
20260502180505 54 294 0.0 0.9 0.11 0.36 0.36 93 1013.4
20260502170505 54 59 0.0 0.9 0.03 0.25 0.25 91 1014.2
20260502164005 55 54 0.0 0.9 0.05 0.25 0.25 91 1014.3
20260502163505 54 66 0.0 0.9 0.06 0.25 0.25 90 1014.3
20260502163005 55 67 0.0 0.9 0.07 0.25 0.25 90 1014.3
20260502162505 55 64 0.9 0.9 0.09 0.25 0.25 90 1014.2
20260502162005 55 49 0.9 0.9 0.11 0.25 0.25 90 1014.2
20260502161505 55 311 0.0 1.7 0.12 0.24 0.24 89 1014.3
20260502161005 55 320 0.9 1.7 0.13 0.23 0.23 89 1014.3
20260502160505 55 335 0.9 1.7 0.14 0.22 0.22 89 1014.3
20260502152005 56 141 0.0 0.9 0.14 0.15 0.14 86 1015.5
20260502151505 56 141 0.0 0.9 0.12 0.13 0.12 85 1015.5
20260502151005 57 137 0.0 0.9 0.10 0.11 0.10 85 1015.7
20260502150505 57 135 0.0 0.9 0.08 0.09 0.08 84 1015.5
20260502130505 64 119 2.6 2.6 0.00 0.01 0.00 56 1016.5
20260502123505 64 140 1.7 3.5 0.00 0.01 0.00 56 1016.7
20260502123005 64 112 1.7 5.2 0.00 0.01 0.00 56 1016.9
20260502122505 63 119 1.7 5.2 0.00 0.01 0.00 56 1017.1
20260502122005 64 124 2.6 3.5 0.00 0.01 0.00 56 1017.0
20260502121505 64 127 1.7 3.5 0.00 0.01 0.00 55 1017.1
20260502121005 64 142 0.9 3.5 0.00 0.01 0.00 57 1017.1
20260502120505 64 88 3.5 3.5 0.00 0.01 0.00 55 1017.4
20260502115505 64 111 2.6 3.5 0.00 0.01 0.00 55 1017.4
20260502115005 64 141 1.7 2.6 0.00 0.01 0.00 56 1017.6
20260502114505 64 138 1.7 2.6 0.00 0.01 0.00 56 1017.6
20260502114005 65 100 2.6 1.7 0.00 0.01 0.00 55 1017.3
20260502113505 65 100 2.6 1.7 0.00 0.01 0.00 55 1017.6
20260502113005 65 97 1.7 2.6 0.00 0.01 0.00 55 1017.4
20260502112505 65 88 0.9 2.6 0.00 0.01 0.00 55 1017.5
20260502112005 65 9 0.9 1.7 0.00 0.01 0.00 54 1017.7
20260502111505 64 114 0.9 5.2 0.00 0.01 0.00 56 1017.7
20260502111005 63 120 1.7 5.2 0.00 0.01 0.00 57 1017.8
20260502110505 63 107 2.6 7.0 0.00 0.01 0.00 59 1018.0
20260502110005 62 104 2.6 7.0 0.00 0.01 0.00 61 1017.9
20260502105505 62 122 2.6 6.1 0.00 0.01 0.00 59 1018.3
20260502105005 63 112 2.6 6.1 0.00 0.01 0.00 59 1018.3
20260502104505 63 92 0.9 6.1 0.00 0.01 0.00 58 1018.2
20260502104005 62 100 1.7 5.2 0.00 0.01 0.00 60 1018.5
20260502103505 62 103 2.6 5.2 0.00 0.01 0.00 62 1018.6
20260502103005 62 114 2.6 5.2 0.00 0.01 0.00 62 1018.7
20260502102505 62 138 1.7 5.2 0.00 0.01 0.00 61 1018.8
20260502102005 62 121 2.6 6.1 0.00 0.01 0.00 61 1018.6
20260502101505 61 101 2.6 6.1 0.00 0.01 0.00 63 1018.9
20260502101005 61 104 2.6 6.1 0.00 0.01 0.00 62 1019.1
20260502100505 61 120 2.6 7.0 0.00 0.01 0.00 62 1019.1
20260502091505 59 108 1.7 3.5 0.00 0.01 0.00 67 1019.1
20260502091005 58 104 1.7 5.2 0.00 0.01 0.00 68 1019.3
20260502090505 59 108 2.6 6.1 0.00 0.01 0.00 68 1019.3
20260502071504 51 125 0.0 0.9 0.00 0.01 0.00 93 1020.3
20260502071005 50 117 0.9 1.7 0.00 0.01 0.00 94 1020.1
20260502070504 50 110 0.9 1.7 0.00 0.01 0.00 93 1020.2
20260502070005 49 101 0.0 0.9 0.00 0.01 0.00 93 1020.1
20260502065504 49 0 0.0 0.0 0.00 0.01 0.00 93 1020.2
20260502065004 49 0 0.0 0.0 0.00 0.01 0.00 93 1020.0
20260502064505 49 0 0.0 0.0 0.00 0.01 0.00 93 1020.2
20260502064005 49 0 0.0 0.0 0.00 0.01 0.00 93 1020.2
20260502063504 49 102 0.0 0.9 0.00 0.01 0.00 93 1020.3
20260502063004 49 102 0.0 0.9 0.00 0.01 0.00 93 1020.2
20260502062504 49 102 0.0 0.9 0.00 0.01 0.00 93 1020.2
20260502062004 49 102 0.0 0.9 0.00 0.01 0.00 93 1020.2
20260502061505 48 101 0.0 0.9 0.00 0.01 0.00 93 1020.1
20260502061004 48 0 0.0 0.0 0.00 0.01 0.00 93 1020.3
20260502060504 48 0 0.0 0.0 0.00 0.01 0.00 92 1020.5
20260502060005 48 0 0.0 0.0 0.00 0.01 0.00 92 1020.2
20260502055504 48 0 0.0 0.0 0.00 0.01 0.00 92 1020.1
20260502055004 47 0 0.0 0.0 0.00 0.01 0.00 92 1020.4
20260502054504 47 0 0.0 0.0 0.00 0.01 0.00 92 1020.4
20260502054004 47 0 0.0 0.0 0.00 0.01 0.00 92 1020.5
20260502053504 46 0 0.0 0.0 0.00 0.01 0.00 92 1020.2
20260502053004 46 0 0.0 0.0 0.00 0.01 0.00 92 1020.4
20260502052505 46 0 0.0 0.0 0.00 0.01 0.00 92 1020.3
20260502052004 45 0 0.0 0.0 0.00 0.01 0.00 92 1020.2
20260502051504 45 0 0.0 0.0 0.00 0.01 0.00 92 1020.3
20260502051005 45 0 0.0 0.0 0.00 0.01 0.00 92 1020.2
20260502050504 45 0 0.0 0.0 0.00 0.01 0.00 92 1020.3
20260502050005 44 0 0.0 0.0 0.00 0.01 0.00 92 1020.1
20260502045504 44 0 0.0 0.0 0.00 0.01 0.00 92 1020.1
20260502045005 44 0 0.0 0.0 0.00 0.01 0.00 92 1020.2
20260502044505 44 0 0.0 0.0 0.00 0.01 0.00 92 1020.2
20260502044004 44 0 0.0 0.0 0.00 0.01 0.00 92 1020.4
20260502043504 44 101 0.0 0.9 0.00 0.01 0.00 92 1020.2
20260502043004 44 101 0.0 0.9 0.00 0.01 0.00 92 1020.1
20260502042504 43 101 0.0 0.9 0.00 0.01 0.00 92 1020.2
20260502042004 43 101 0.0 0.9 0.00 0.01 0.00 92 1020.4
20260502041504 43 101 0.0 0.9 0.00 0.01 0.00 92 1020.4
20260502041004 43 0 0.0 0.0 0.00 0.01 0.00 92 1020.1
20260502040504 43 0 0.0 0.0 0.00 0.01 0.00 92 1020.1
20260502040004 43 0 0.0 0.0 0.00 0.01 0.00 92 1020.3
20260502035504 43 0 0.0 0.0 0.00 0.01 0.00 92 1020.5
20260502035004 43 0 0.0 0.0 0.00 0.01 0.00 91 1020.6
20260502034504 43 0 0.0 0.0 0.00 0.01 0.00 91 1020.4
20260502034004 43 0 0.0 0.0 0.00 0.01 0.00 91 1020.7
20260502033504 43 0 0.0 0.0 0.00 0.01 0.00 91 1020.7
20260502033004 43 0 0.0 0.0 0.00 0.01 0.00 91 1020.8
20260502032504 43 0 0.0 0.0 0.00 0.01 0.00 91 1020.6
20260502032004 43 0 0.0 0.0 0.00 0.01 0.00 91 1020.7
20260502031504 43 0 0.0 0.0 0.00 0.01 0.00 91 1020.7
20260502031004 44 0 0.0 0.0 0.00 0.01 0.00 91 1020.9
20260502030504 44 0 0.0 0.0 0.00 0.01 0.00 91 1020.8
20260502030004 44 0 0.0 0.0 0.00 0.01 0.00 91 1020.8
20260502025504 44 0 0.0 0.0 0.00 0.01 0.00 91 1020.8
20260502025004 43 0 0.0 0.0 0.00 0.01 0.00 91 1020.8
20260502024504 43 0 0.0 0.0 0.00 0.01 0.00 91 1020.8
20260502024004 43 0 0.0 0.0 0.00 0.01 0.00 91 1020.8
20260502023504 43 0 0.0 0.0 0.00 0.01 0.00 90 1020.9
20260502023004 43 0 0.0 0.0 0.00 0.01 0.00 90 1020.9
20260502022504 44 0 0.0 0.0 0.00 0.01 0.00 90 1021.0
20260502022004 43 0 0.0 0.0 0.00 0.01 0.00 90 1021.0
20260502021504 44 0 0.0 0.0 0.00 0.01 0.00 90 1020.9
20260502021004 44 0 0.0 0.0 0.00 0.01 0.00 90 1020.9
20260502020504 44 0 0.0 0.0 0.00 0.01 0.00 90 1021.1
20260502020004 44 0 0.0 0.0 0.00 0.01 0.00 90 1021.1
20260502015504 44 0 0.0 0.0 0.00 0.01 0.00 90 1021.3
20260502015004 44 0 0.0 0.0 0.00 0.01 0.00 90 1021.2
20260502014504 44 0 0.0 0.0 0.00 0.01 0.00 89 1021.2
20260502014004 44 0 0.0 0.0 0.00 0.01 0.00 89 1021.1
20260502013504 44 0 0.0 0.0 0.00 0.01 0.00 89 1021.3
20260502013004 44 0 0.0 0.0 0.00 0.01 0.00 89 1021.2
20260502012504 45 0 0.0 0.0 0.00 0.01 0.00 88 1021.4
20260502012004 45 0 0.0 0.0 0.00 0.01 0.00 88 1021.3
20260502011504 45 0 0.0 0.0 0.00 0.01 0.00 88 1021.3
20260502011004 45 0 0.0 0.0 0.00 0.01 0.00 88 1021.3
20260502010504 45 0 0.0 0.0 0.00 0.01 0.00 87 1021.2
20260502010004 46 0 0.0 0.0 0.00 0.01 0.00 87 1021.4
20260502005504 46 101 0.0 1.7 0.00 0.01 0.00 87 1021.6
20260502005004 46 101 0.0 1.7 0.00 0.01 0.00 86 1021.3
20260502004504 46 0 0.0 0.0 0.00 0.01 0.00 86 1021.2
20260502004004 47 273 0.0 0.9 0.00 0.01 0.00 86 1021.8
20260502003504 47 273 0.0 0.9 0.00 0.01 0.00 86 1021.5
20260502003004 47 0 0.0 0.0 0.00 0.01 0.00 85 1021.6
20260502002504 47 0 0.0 0.0 0.00 0.01 0.00 85 1021.7
20260502002004 48 0 0.0 0.0 0.00 0.01 0.00 84 1021.5
20260502001504 48 0 0.0 0.0 0.00 0.01 0.00 84 1021.7
20260502001004 49 0 0.0 0.0 0.00 0.01 0.00 83 1021.7
20260502000504 49 0 0.0 0.0 0.00 0.01 0.00 82 1021.6
20260502000004 49 286 0.0 0.9 0.00 0.01 0.00 82 1021.5
20260501235504 50 286 0.0 0.9 0.00 0.01 0.00 82 1021.6
20260501235004 50 286 0.0 1.7 0.00 0.01 0.00 81 1021.6
20260501234504 50 286 0.0 1.7 0.00 0.01 0.00 81 1021.6
20260501234004 50 281 0.0 1.7 0.00 0.01 0.00 81 1021.8
20260501233504 50 277 0.0 1.7 0.00 0.01 0.00 82 1021.9
20260501233004 50 276 0.0 0.9 0.00 0.01 0.00 82 1021.9
20260501232504 50 278 0.0 0.9 0.00 0.01 0.00 82 1022.0
20260501232004 50 278 0.0 0.9 0.00 0.01 0.00 82 1022.1
20260501231504 50 0 0.0 0.0 0.00 0.01 0.00 82 1022.1
20260501231004 49 325 0.9 0.9 0.00 0.01 0.00 83 1022.1
20260501230504 49 325 0.9 0.9 0.00 0.01 0.00 83 1022.2
20260501230004 49 325 0.9 0.9 0.00 0.01 0.00 83 1022.2
20260501225504 49 325 0.9 0.9 0.00 0.01 0.01 83 1022.0
20260501225004 49 325 0.9 0.9 0.00 0.01 0.01 83 1022.2
20260501224505 49 325 0.0 0.9 0.00 0.01 0.01 83 1022.1
20260501224004 49 5 0.0 0.9 0.00 0.01 0.01 83 1022.3
20260501223504 49 44 0.0 0.9 0.00 0.01 0.01 83 1022.2
20260501223004 49 27 0.0 0.9 0.00 0.01 0.01 83 1022.3
20260501222504 49 294 0.0 0.9 0.00 0.01 0.01 83 1022.2
20260501222004 49 285 0.0 0.9 0.00 0.01 0.01 82 1022.1